Home > Weather > Campbelltown > Past weeks

Flag for Australia Past Weather in Campbelltown, New South Wales, Australia — Yesterday and Last 2 Weeks

Now
50 °F

Overcast.


Feels Like: 47 °F
Forecast: 41 / 60 °F
Wind: 6 mph from Southwest

Location: Camden Airport

Current Time: Jun 27, 2016 at 11:11:01 PM

Latest Report: Jun 27, 2016 at 9:00 PM


Visibility: N/A

Pressure: 30.04 "Hg

Humidity: 60%

Dew Point: 36 °F

Location of CampbelltownLocation

Past Weather in Campbelltown — Graph

°F

Campbelltown Temperature Yesterday

Maximum temperature yesterday: 58 °F (at 2:00 PM)
Minimum temperature yesterday: 31 °F (at 6:00 AM)
Average temperature yesterday: 44 °F

High & Low Weather Summary for the Past Weeks

 TemperatureHumidityPressure
High69 °F (Jun 14, 3:00 PM)100% (Jun 15, 8:00 AM)30.69 "Hg (Jun 15, 8:00 AM)
Low31 °F (Jun 26, 6:00 AM)32% (Jun 25, 2:00 PM)29.35 "Hg (Jun 20, 2:00 PM)
Average51 °F75%30.02 "Hg
* Reported Jun 12 9:00 PM — Jun 27 9:00 PM, Campbelltown, Weather by CustomWeather, © 2016

Note: Actual official high and low records may vary slightly from our data, if they occured in-between our weather recording intervals... More about our weather records

Advertising

Campbelltown Weather History for the Previous 24 Hours

Scroll right to see more
 ConditionsComfort  
Time TempWeatherWind HumidityBarometerVisibility
9:00 PM
Mon, Jun 27
50 °FOvercast.6 mph60%30.04 "HgN/A
8:00 PM49 °FCool.7 mph60%30.03 "HgN/A
6:00 PM50 °FOvercast.8 mph60%29.99 "HgN/A
5:00 PM51 °FCool.8 mph61%29.98 "HgN/A
3:00 PM52 °FLight rain. Overcast.13 mph59%29.94 "HgN/A
2:00 PM54 °FCool.13 mph57%29.93 "HgN/A
12:00 PM52 °FOvercast.10 mph65%29.93 "HgN/A
11:00 AM49 °FCool.7 mph73%29.96 "HgN/A
9:00 AM45 °FLight rain. Overcast.6 mph86%30.00 "HgN/A
8:00 AM45 °FCool.1 mph84%29.99 "HgN/A
6:00 AM46 °FDrizzle. Overcast.2 mph82%29.98 "HgN/A
5:00 AM44 °FQuite cool.3 mph96%29.97 "HgN/A
3:00 AM43 °FOvercast.No wind89%29.97 "HgN/A
2:00 AM43 °FQuite cool.No wind91%29.98 "HgN/A
12:00 AM43 °FOvercast.No wind94%30.00 "HgN/A
11:00 PM
Sun, Jun 26
43 °FQuite cool.1 mph90%30.00 "HgN/A
Weather by CustomWeather, © 2016

See weather overviewHow to use our weather pages